Location: Jackson Park
(37.2862°N, 79.9123°W)
Time: 13:38:10
(UTC+00:00)

Vanguard 2 - Pass Details

Date: 12 May 2026
Orbit: 553 x 2894 km, 32.9° (Epoch: 6 June)

Event Time Altitude Azimuth Distance (km) Brightness Sun altitude
Rises 12:02:02 0° 275° (W) 6,494 11.7 19.9°
Reaches altitude 10° 12:06:46 10° 273° (W) 5,254 11.3 20.8°
Maximum altitude 12:20:58 62° 198° (SSW) 2,032 9.9 23.6°
Drops below altitude 10° 12:29:39 10° 120° (ESE) 3,332 11.8 25.3°
Sets 12:32:00 0° 116° (ESE) 4,049 12.1 25.8°
